Location: Unspecified
(33.2407°S, 0.0000°E)
Time: 10:49:25
(UTC+00:00)

Envisat - Pass Details

Date: 26 May 2019
Orbit: 764 x 766 km, 98.1° (Epoch: 16 June)

Event Time Altitude Azimuth Distance (km) Brightness Sun altitude
Exits shadow 19:52:12 31° 301° (WNW) 1,318 4.6 -35.0°
Drops below altitude 10° 19:55:09 10° 324° (NW) 2,305 5.9 -35.6°
Sets 19:57:31 0° 330° (NNW) 3,223 6.6 -36.1°
